Douglas, GA

12:02 AM EDT on September 27, 2016 (GMT -0400)
Douglas Municipal

Weather History for KDQH - August, 2014

Change the Weather History Date:

Thursday, August 14, 2014

  Actual Average Record
Temperature  
Mean Temperature 84 °F -  
Max Temperature 93 °F 90 °F 100 °F (2007)
Min Temperature 75 °F 67 °F 59 °F (1967)
Cooling Degree Days 19    
Growing Degree Days 34 (Base 50)    
Moisture  
Dew Point 68 °F    
Average Humidity 65    
Maximum Humidity 94    
Minimum Humidity 36    
Precipitation  
Precipitation 0.00 in - - ()
Sea Level Pressure  
Sea Level Pressure 29.99 in    
Wind  
Wind Speed 1 mph (NW)    
Max Wind Speed 9 mph    
Max Gust Speed -    
Visibility 9 miles    
Events Fog    
Averages and records for this station are not official NWS values.
T = Trace of Precipitation, MM = Missing Value Source: NWS Daily Summary

Daily Weather History Graph

Daily Weather History Graph

Search for Another Location

Airport or City:

Trip Planner

Search our weather history database for the weather conditions in past years. The results will help you decide how hot, cold, wet, or windy it might be!

Date:

Astronomy

Aug. 14, 2014 Rise Set
Actual Time 6:56 AM EDT 8:15 PM EDT
Civil Twilight 6:30 AM EDT 8:41 PM EDT
Nautical Twilight 5:59 AM EDT 9:11 PM EDT
Astronomical Twilight 5:28 AM EDT 9:43 PM EDT
Moon 11:00 PM EDT (8/14) 11:11 AM EDT (8/14)
Length of Visible Light 14h 10m
Length of Day
13h 19m
Waning Gibbous, 79% of the Moon is Illuminated
Aug 14
Waning Gibbous
Aug 17
Last Quarter
Aug 25
New
Sep 2
First Quarter
Sep 8
Full

Hourly Weather History & Observations

Time (EDT) Temp. Heat Index Dew Point Humidity Pressure Visibility Wind Dir Wind Speed Gust Speed Precip Events Conditions
12:15 AM 78.8 °F - 77.0 °F 94% 29.99 in 10.0 mi Calm Calm - N/A   Drizzle
12:35 AM 78.8 °F - 77.0 °F 94% 29.98 in 7.0 mi Calm Calm - N/A   Overcast
12:55 AM 78.8 °F - 77.0 °F 94% 29.98 in 7.0 mi Calm Calm - N/A   Scattered Clouds
1:15 AM 77.0 °F - 75.2 °F 94% 29.98 in 5.0 mi Calm Calm - N/A   Clear
1:35 AM 77.0 °F - 75.2 °F 94% 29.98 in 5.0 mi Calm Calm - N/A   Clear
1:55 AM 77.0 °F - 75.2 °F 94% 29.98 in 4.0 mi Calm Calm - N/A   Clear
2:15 AM 77.0 °F - 75.2 °F 94% 29.98 in 2.5 mi Calm Calm - N/A   Clear
2:35 AM 77.0 °F - 75.2 °F 94% 29.98 in 7.0 mi Calm Calm - N/A   Mostly Cloudy
2:55 AM 77.0 °F - 75.2 °F 94% 29.98 in 7.0 mi Calm Calm - N/A   Overcast
3:15 AM 77.0 °F - 75.2 °F 94% 29.97 in 7.0 mi Calm Calm - N/A   Scattered Clouds
3:35 AM 77.0 °F - 73.4 °F 89% 29.97 in 2.5 mi Calm Calm - N/A   Clear
3:55 AM 77.0 °F - 73.4 °F 89% 29.97 in 0.5 mi Calm Calm - N/A Fog Fog
4:15 AM 77.0 °F - 73.4 °F 89% 29.97 in 0.8 mi Calm Calm - N/A   Mostly Cloudy
4:35 AM 75.2 °F - 73.4 °F 94% 29.97 in 4.0 mi Calm Calm - N/A   Mostly Cloudy
4:55 AM 75.2 °F - 73.4 °F 94% 29.97 in 10.0 mi North 3.5 mph - N/A   Mostly Cloudy
5:15 AM 75.2 °F - 71.6 °F 89% 29.98 in 10.0 mi Calm Calm - N/A   Mostly Cloudy
5:35 AM 75.2 °F - 69.8 °F 83% 29.97 in 10.0 mi NNE 4.6 mph - N/A   Overcast
6:15 AM 75.2 °F - 68.0 °F 78% 29.98 in 10.0 mi Calm Calm - N/A   Overcast
6:35 AM 75.2 °F - 68.0 °F 78% 29.99 in 10.0 mi Calm Calm - N/A   Overcast
6:55 AM 75.2 °F - 68.0 °F 78% 30.00 in 10.0 mi Calm Calm - N/A   Overcast
7:15 AM 75.2 °F - 68.0 °F 78% 30.00 in 10.0 mi Calm Calm - N/A   Overcast
7:35 AM 75.2 °F - 68.0 °F 78% 30.00 in 10.0 mi Calm Calm - N/A   Overcast
7:55 AM 75.2 °F - 68.0 °F 78% 30.01 in 10.0 mi North 3.5 mph - N/A   Overcast
8:15 AM 77.0 °F - 66.2 °F 69% 30.01 in 10.0 mi Calm Calm - N/A   Overcast
8:35 AM 77.0 °F - 66.2 °F 69% 30.01 in 10.0 mi Calm Calm - N/A   Overcast
8:55 AM 78.8 °F - 64.4 °F 61% 30.02 in 10.0 mi NNE 4.6 mph - N/A   Mostly Cloudy
9:15 AM 78.8 °F - 62.6 °F 57% 30.02 in 10.0 mi North 6.9 mph - N/A   Mostly Cloudy
9:35 AM 80.6 °F 81.8 °F 62.6 °F 54% 30.03 in 10.0 mi NNE 4.6 mph - N/A   Mostly Cloudy
9:55 AM 82.4 °F 82.9 °F 60.8 °F 48% 30.03 in 10.0 mi NE 4.6 mph - N/A   Mostly Cloudy
10:15 AM 82.4 °F 82.9 °F 60.8 °F 48% 30.03 in 10.0 mi Calm Calm - N/A   Mostly Cloudy
10:35 AM 84.2 °F 85.0 °F 62.6 °F 48% 30.05 in 10.0 mi Calm Calm - N/A   Overcast
10:55 AM 84.2 °F 85.0 °F 62.6 °F 48% 30.05 in 10.0 mi Calm Calm - N/A   Overcast
11:15 AM 86.0 °F 87.3 °F 64.4 °F 48% 30.05 in 10.0 mi West 3.5 mph - N/A   Overcast
11:35 AM 86.0 °F 86.6 °F 62.6 °F 45% 30.05 in 10.0 mi WSW 3.5 mph - N/A   Mostly Cloudy
11:55 AM 87.8 °F 89.4 °F 64.4 °F 46% 30.04 in 10.0 mi WSW 3.5 mph - N/A   Scattered Clouds
12:15 PM 87.8 °F 89.4 °F 64.4 °F 46% 30.04 in 10.0 mi West 6.9 mph - N/A   Scattered Clouds
12:35 PM 89.6 °F 91.1 °F 64.4 °F 43% 30.03 in 10.0 mi NW 3.5 mph - N/A   Scattered Clouds
12:55 PM 89.6 °F 89.5 °F 60.8 °F 38% 30.03 in 10.0 mi NNW 5.8 mph - N/A   Mostly Cloudy
1:15 PM 87.8 °F 88.5 °F 62.6 °F 43% 30.02 in 10.0 mi NNW 4.6 mph - N/A   Overcast
1:35 PM 87.8 °F 87.6 °F 60.8 °F 40% 30.02 in 10.0 mi WNW 3.5 mph - N/A   Mostly Cloudy
1:55 PM 89.6 °F 89.5 °F 60.8 °F 38% 30.01 in 10.0 mi WSW 6.9 mph - N/A   Mostly Cloudy
2:15 PM 91.4 °F 92.1 °F 62.6 °F 38% 30.00 in 10.0 mi WNW 9.2 mph - N/A   Mostly Cloudy
2:35 PM 91.4 °F 92.1 °F 62.6 °F 38% 29.99 in 10.0 mi NNW 3.5 mph - N/A   Mostly Cloudy
2:55 PM 89.6 °F 90.1 °F 62.6 °F 40% 29.98 in 10.0 mi NNE 3.5 mph - N/A   Overcast
3:15 PM 91.4 °F 92.1 °F 62.6 °F 38% 29.98 in 10.0 mi West 3.5 mph - N/A   Mostly Cloudy
3:35 PM 91.4 °F 92.1 °F 62.6 °F 38% 29.97 in 10.0 mi West 5.8 mph - N/A   Mostly Cloudy
3:55 PM 91.4 °F 92.1 °F 62.6 °F 38% 29.97 in 10.0 mi WNW 9.2 mph - N/A   Scattered Clouds
4:15 PM 91.4 °F 92.1 °F 62.6 °F 38% 29.96 in 10.0 mi Calm Calm - N/A   Clear
4:35 PM 91.4 °F 93.2 °F 64.4 °F 41% 29.96 in 10.0 mi West 3.5 mph - N/A   Clear
4:55 PM 91.4 °F 92.1 °F 62.6 °F 38% 29.97 in 10.0 mi WSW 3.5 mph - N/A   Scattered Clouds
5:15 PM 93.2 °F 94.1 °F 62.6 °F 36% 29.97 in 10.0 mi West 6.9 mph - N/A   Scattered Clouds
5:35 PM 91.4 °F 93.2 °F 64.4 °F 41% 29.97 in 10.0 mi West 3.5 mph - N/A   Scattered Clouds
5:55 PM 91.4 °F 92.1 °F 62.6 °F 38% 29.97 in 10.0 mi Calm Calm - N/A   Clear
6:15 PM 89.6 °F 90.1 °F 62.6 °F 40% 29.95 in 10.0 mi Calm Calm - N/A   Clear
6:35 PM 89.6 °F 91.1 °F 64.4 °F 43% 29.95 in 10.0 mi Calm Calm - N/A   Scattered Clouds
6:55 PM 89.6 °F 93.4 °F 68.0 °F 49% 29.95 in 10.0 mi Calm Calm - N/A   Scattered Clouds
7:15 PM 87.8 °F 93.8 °F 71.6 °F 58% 29.95 in 10.0 mi Calm Calm - N/A   Clear
7:35 PM 87.8 °F 93.8 °F 71.6 °F 58% 29.96 in 10.0 mi Calm Calm - N/A   Clear
7:55 PM 86.0 °F 93.4 °F 73.4 °F 66% 29.96 in 10.0 mi Calm Calm - N/A   Clear
8:15 PM 84.2 °F 90.9 °F 73.4 °F 70% 29.97 in 10.0 mi Calm Calm - N/A   Clear
8:35 PM 82.4 °F 88.2 °F 73.4 °F 74% 29.97 in 10.0 mi Calm Calm - N/A   Scattered Clouds
8:55 PM 82.4 °F 87.2 °F 71.6 °F 70% 29.98 in 10.0 mi Calm Calm - N/A   Clear
9:15 PM 82.4 °F 86.3 °F 69.8 °F 66% 29.98 in 10.0 mi Calm Calm - N/A   Scattered Clouds
9:35 PM 78.8 °F - 71.6 °F 78% 29.99 in 10.0 mi Calm Calm - N/A   Scattered Clouds
9:55 PM 78.8 °F - 71.6 °F 78% 29.99 in 10.0 mi Calm Calm - N/A   Scattered Clouds
10:15 PM 78.8 °F - 73.4 °F 83% 29.99 in 10.0 mi Calm Calm - N/A   Clear
10:35 PM 80.6 °F 84.6 °F 71.6 °F 74% 30.00 in 10.0 mi SSE 5.8 mph - N/A   Clear
10:55 PM 80.6 °F 85.4 °F 73.4 °F 79% 30.00 in 10.0 mi Calm Calm - N/A   Clear
11:15 PM 78.8 °F - 73.4 °F 83% 30.00 in 10.0 mi Calm Calm - N/A   Scattered Clouds
11:35 PM 78.8 °F - 73.4 °F 83% 30.00 in 10.0 mi Calm Calm - N/A   Clear
11:55 PM 78.8 °F - 73.4 °F 83% 30.00 in 10.0 mi SW 4.6 mph - N/A   Clear